Regional Weather Roundup
Issued by NWS

Home | Current Version | Previous Version | Text Only | Print | Product List | Glossary Off
Versions: 1 2 3 4 5 6 7 8 9 10 11 12 13 14 15 16 17 18 19 20 21 22 23 24 25 26 27 28 29 30 31 32 33 34 35 36 37 38 39 40 41 42 43 44 45 46 47 48 49 50

000
ASUS43 KBIS 110702
RWRND

NORTH DAKOTA REGIONAL WEATHER ROUNDUP
NATIONAL WEATHER SERVICE BISMARCK ND
100 AM CST MON DEC 11 2017

NOTE: "FAIR" INDICATES FEW OR NO CLOUDS BELOW 12,000 FEET WITH NO
SIGNIFICANT WEATHER AND/OR OBSTRUCTIONS TO VISIBILITY.


NDZ001>003-009>011-017-110800-
NORTHWEST NORTH DAKOTA

CITY           SKY/WX    TMP DP  RH WIND       PRES   REMARKS
WILLISTON      CLOUDY    42  29  59 NW33G46   30.01R
MINOT          CLOUDY    41  33  73 W31G45    29.81R
MINOT AFB      CLOUDY    40  32  73 NW30G44   29.80R
$$

NDZ018>021-031>035-040>046-110800-
SOUTHWEST NORTH DAKOTA

CITY           SKY/WX    TMP DP  RH WIND       PRES   REMARKS
BISMARCK       PTCLDY    43  23  45 W16       29.89F
DICKINSON      CLEAR     38  24  57 NW29G35   29.98R
GARRISON         N/A     40  32  73 NW33G48   29.86R
HETTINGER ARPT CLEAR     39  17  41 W24       30.04R
$$

NDZ004>008-012>016-024-026-027-054-110800-
NORTHEAST NORTH DAKOTA

CITY           SKY/WX    TMP DP  RH WIND       PRES   REMARKS
GRAND FORKS    CLOUDY    31  30  96 S5        29.69F
GRND FRKS AFB  DRIZZLE   39  30  70 NW6       29.68F
DEVILS LAKE    MIX PCPN  36  31  82 NW29G36   29.71F
$$

NDZ022-023-025-028>030-036>039-047>053-110800-
SOUTHEAST NORTH DAKOTA

CITY           SKY/WX    TMP DP  RH WIND       PRES   REMARKS
FARGO          CLOUDY    32  28  85 S9        29.75F
JAMESTOWN      MOCLDY    40  28  62 W18       29.74F
$$





USA.gov is the U.S. government's official web portal to all federal, state and local government web resources and services.